FW1708 Weather Reports


time (UTC)temp
F
wind
direction
speed
knots
gust
knots
rain 1hr
in
rain 24hr
in
rain mn
in
humidity
%
barometer
mb
20260505121535 65 240 0.9 6.1 0.00 0.00 0.00 65 1012.1
20260505120043 64 259 1.7 5.2 0.00 0.00 0.00 67 1012.1
20260505114539 63 270 2.6 7.0 0.00 0.00 0.00 67 1012.0
20260505113025 62 268 0.9 5.2 0.00 0.00 0.00 69 1012.1
20260505111524 61 268 0.9 4.3 0.00 0.00 0.00 71 1011.8
20260505101521 60 246 0.9 5.2 0.00 0.00 0.00 71 1011.6
20260505100029 60 224 0.0 1.7 0.00 0.00 0.00 72 1011.3
20260505094519 60 244 0.9 2.6 0.00 0.00 0.00 72 1011.2
20260505093020 60 277 1.7 5.2 0.00 0.00 0.00 72 1011.1
20260505091528 59 209 0.9 2.6 0.00 0.00 0.00 73 1011.2
20260505090036 58 253 0.0 2.6 0.00 0.00 0.00 76 1011.2
20260505084519 59 255 0.0 0.9 0.00 0.00 0.00 73 1011.1
20260505083013 60 255 0.0 1.7 0.00 0.00 0.00 72 1011.3
20260505081511 60 255 0.0 1.7 0.00 0.00 0.00 71 1011.3
20260505080009 61 256 0.0 0.0 0.00 0.00 0.00 70 1011.2
20260505074510 61 243 0.0 2.6 0.00 0.00 0.00 69 1011.3
20260505073014 61 262 0.0 1.7 0.00 0.00 0.00 69 1011.3
20260505071509 61 261 0.0 2.6 0.00 0.00 0.00 69 1011.4
20260505070011 61 240 0.9 5.2 0.00 0.00 0.00 69 1011.2
20260505064506 61 271 0.0 2.6 0.00 0.00 0.00 69 1011.2
20260505063007 61 264 1.7 7.8 0.00 0.00 0.00 68 1011.3
20260505061510 61 257 0.0 6.1 0.00 0.00 0.00 68 1011.1
20260505060013 61 300 0.9 5.2 0.00 0.00 0.00 67 1011.3
20260505054504 61 229 1.7 4.3 0.00 0.00 0.00 67 1011.2
20260505053004 61 212 0.9 3.5 0.00 0.00 0.00 67 1011.3
20260505051503 61 214 0.9 3.5 0.00 0.00 0.00 66 1011.2
20260505050128 61 175 0.9 2.6 0.00 0.00 0.00 66 1011.3
20260505041606 62 209 0.9 5.2 0.00 0.00 0.00 61 1011.4
20260505040059 62 214 0.0 2.6 0.00 0.00 0.00 59 1011.2
20260505034553 63 213 0.9 2.6 0.00 0.00 0.00 56 1011.1
20260505033053 63 165 0.0 3.5 0.00 0.00 0.00 55 1011.1
20260505031553 63 167 0.0 2.6 0.00 0.00 0.00 54 1011.1
20260505030052 64 209 0.0 1.7 0.00 0.00 0.00 53 1011.2
20260505024552 64 209 0.9 2.6 0.00 0.00 0.00 54 1011.3
20260505023054 64 200 0.0 1.7 0.00 0.00 0.00 54 1011.4
20260505021551 64 180 0.0 1.7 0.00 0.00 0.00 54 1011.6
20260505020050 64 169 0.9 3.5 0.00 0.00 0.00 55 1011.5
20260505014604 64 157 0.0 1.7 0.00 0.00 0.00 54 1011.5
20260505013051 63 154 0.0 1.7 0.00 0.00 0.00 55 1011.5
20260505011549 61 254 0.0 0.0 0.00 0.00 0.00 58 1011.4
20260505010049 62 254 0.0 0.0 0.00 0.00 0.00 59 1011.1
20260505004548 63 266 0.0 0.0 0.00 0.00 0.00 57 1010.9
20260505003048 65 264 0.0 0.0 0.00 0.00 0.00 53 1010.8
20260505001601 67 263 0.0 0.0 0.00 0.00 0.00 48 1010.7
20260505000104 68 263 0.0 5.2 0.00 0.00 0.00 46 1010.6
20260504234604 69 248 0.0 3.5 0.00 0.00 0.00 44 1010.5
20260504233050 70 259 2.6 7.8 0.00 0.00 0.00 43 1010.4
20260504231545 70 263 3.5 7.0 0.00 0.00 0.00 41 1010.4
20260504230045 71 259 2.6 7.8 0.00 0.00 0.00 41 1010.4
20260504224558 71 233 0.9 9.6 0.00 0.00 0.00 40 1010.3
20260504223045 71 248 1.7 7.0 0.00 0.00 0.00 40 1010.5
20260504221543 71 285 3.5 8.7 0.00 0.00 0.00 40 1010.5
20260504220041 72 313 3.5 8.7 0.00 0.00 0.00 41 1010.6
20260504214540 72 229 0.9 7.0 0.00 0.00 0.00 41 1010.8
20260504213055 71 261 4.3 8.7 0.00 0.00 0.00 41 1010.6
20260504211540 72 252 2.6 7.0 0.00 0.00 0.00 40 1010.7
20260504210039 72 263 3.5 8.7 0.00 0.00 0.00 40 1010.6
20260504204537 72 218 2.6 7.8 0.00 0.00 0.00 41 1010.7
20260504203037 71 150 0.9 9.6 0.00 0.00 0.00 40 1010.8
20260504201536 72 240 2.6 7.0 0.00 0.00 0.00 41 1011.0
20260504200034 71 255 3.5 9.6 0.00 0.00 0.00 42 1011.0
20260504194534 71 262 3.5 8.7 0.00 0.00 0.00 42 1011.2
20260504193035 71 248 2.6 7.0 0.00 0.00 0.00 41 1011.2
20260504191529 70 248 4.3 8.7 0.00 0.00 0.00 40 1011.3
20260504190028 70 234 2.6 7.8 0.00 0.00 0.00 41 1011.5
20260504184524 70 265 1.7 9.6 0.00 0.00 0.00 41 1011.8
20260504183025 70 287 5.2 8.7 0.00 0.00 0.00 40 1011.9
20260504181522 69 246 3.5 7.8 0.00 0.00 0.00 43 1012.1
20260504180020 69 255 6.1 12.2 0.00 0.00 0.00 40 1012.2
20260504174516 69 235 1.7 9.6 0.00 0.00 0.00 42 1012.5
20260504173025 69 254 2.6 9.6 0.00 0.00 0.00 41 1012.7
20260504171518 68 251 2.6 8.7 0.00 0.00 0.00 44 1012.9